Location: Newark
(41.9364°N, 2.8061°E)
Time: 02:21:20
(UTC+00:00)

Envisat - Visible Passes

Search period start: 05 October 2022 00:00
Search period end: 15 October 2022 00:00
Orbit: 764 x 765 km, 98.2° (Epoch: 04 October)

Date Brightness Start Highest point End Pass type
(mag) Time Alt. Az. Time Alt. Az. Time Alt. Az.
05 Oct 5.8 02:49:12 10° ENE 02:51:39 13° E 02:54:05 10° ESE visible
05 Oct 2.9 04:26:05 10° N 04:31:10 71° WNW 04:36:12 10° SSW visible
06 Oct 3.8 03:49:13 10° NNE 03:54:11 52° E 03:59:07 10° S visible
07 Oct 5.2 03:12:57 10° NE 03:17:00 23° E 03:21:02 10° SSE visible
07 Oct 3.4 04:51:24 10° N 04:56:09 41° WNW 05:00:53 10° SW visible
08 Oct 2.9 04:14:12 10° NNE 04:19:19 90° ESE 04:24:23 10° SSW visible
09 Oct 4.2 03:37:29 10° NNE 03:42:16 40° E 03:47:01 10° SSE visible
09 Oct 4.0 05:16:57 10° NNW 05:21:02 25° WNW 05:25:07 10° WSW visible
10 Oct 5.5 03:01:32 10° NE 03:05:01 18° E 03:08:30 10° SE visible
10 Oct 3.1 04:39:23 10° N 04:44:20 53° WNW 04:49:15 10° SSW visible
11 Oct 3.2 04:02:21 10° NNE 04:07:26 71° ESE 04:12:30 10° S visible
12 Oct 4.7 03:25:49 10° NNE 03:30:20 31° E 03:34:49 10° SSE visible
12 Oct 3.7 05:04:50 10° N 05:09:16 31° WNW 05:13:42 10° SW visible
13 Oct 5.8 02:50:21 10° ENE 02:53:02 14° E 02:55:41 10° ESE visible
13 Oct 2.9 04:27:27 10° N 04:32:31 68° WNW 04:37:31 10° SSW visible
14 Oct 3.6 03:50:32 10° NNE 03:55:32 55° E 04:00:30 10° S visible
14 Oct 4.3 05:30:35 10° NNW 05:34:07 19° WNW 05:37:37 10° WSW visible
